Latest Coastal Weather Observations for Esperance Harbour

IDW60701

Issued at 2:23 am WST Saturday 25 November 2017 (issued every 10 minutes, with the page automatically refreshed every 10 minutes)

About coastal observations | Map of coastal stations | Coastal observations for WA | Marine services | Other Formats
Station Details ID: 109504 Name: ESPERANCE NTC AWS Lat: -33.87 Lon: 121.90 Height: 0.0 m
Data from the previous 72 hours. | See also: Recent months for locations in Western Australia
Date/Time
WST
Temp
°C
Wind Pressure Rain since
9am
mm
Weather Cloud Vis
km
Sea
Height
m
Swell
Dir  Spd
kts
Gust
kts
hPa Trend Height
m
Period
s
Dir
25/02:00am 16.3 - - - 1009.5 - - - - - - - - -
25/01:30am 16.6 - - - 1009.5 - - - - - - - - -
25/01:00am 16.8 - - - 1009.7 - - - - - - - - -
25/12:30am 17.3 - - - 1009.8 - - - - - - - - -
25/12:00am 17.3 - - - 1010.1 - - - - - - - - -
 
Date/Time
WST
Temp
°C
Wind Pressure Rain since
9am
mm
Weather Cloud Vis
km
Sea
Height
m
Swell
Dir  Spd
kts
Gust
kts
hPa Trend Height
m
Period
s
Dir
24/11:30pm 17.5 - - - 1010.3 - - - - - - - - -
24/11:00pm 17.6 - - - 1010.6 - - - - - - - - -
24/10:30pm 17.6 - - - 1010.8 - - - - - - - - -
24/10:00pm 18.1 - - - 1010.8 - - - - - - - - -
24/09:30pm 18.0 - - - 1010.8 - - - - - - - - -
24/09:00pm 18.1 - - - 1011.1 - - - - - - - - -
24/08:30pm 18.2 - - - 1011.2 - - - - - - - - -
24/08:00pm 18.3 - - - 1011.4 - - - - - - - - -
24/07:30pm 18.4 - - - 1011.7 - - - - - - - - -
24/07:00pm 18.4 - - - 1011.6 - - - - - - - - -
24/06:30pm 18.5 - - - 1011.6 - - - - - - - - -
24/06:00pm 18.6 - - - 1011.5 - - - - - - - - -
24/05:30pm 18.8 - - - 1011.4 - - - - - - - - -
24/05:00pm 18.8 - - - 1011.1 - - - - - - - - -
24/04:30pm 19.4 - - - 1011.5 - - - - - - - - -
24/04:00pm 19.7 - - - 1011.5 - - - - - - - - -
24/03:30pm 19.7 - - - 1011.6 - - - - - - - - -
24/03:00pm 20.4 - - - 1011.8 - - - - - - - - -
24/02:30pm 21.2 - - - 1012.0 - - - - - - - - -
24/02:00pm 21.4 - - - 1012.0 - - - - - - - - -
24/01:30pm 21.1 - - - 1012.4 - - - - - - - - -
24/01:00pm 20.5 - - - 1012.7 - - - - - - - - -
24/12:30pm 19.7 - - - 1013.1 - - - - - - - - -
24/12:00pm 19.7 - - - 1013.8 - - - - - - - - -
24/11:30am 19.7 - - - 1014.2 - - - - - - - - -
24/11:00am 19.7 - - - 1014.5 - - - - - - - - -
24/10:30am 18.8 - - - 1015.2 - - - - - - - - -
24/10:00am 19.0 - - - 1015.6 - - - - - - - - -
24/09:30am 18.3 - - - 1016.0 - - - - - - - - -
24/09:00am 18.0 - - - 1016.2 - - - - - - - - -
24/08:30am 17.5 - - - 1016.4 - - - - - - - - -
24/08:00am 16.7 - - - 1016.7 - - - - - - - - -
24/07:30am 14.8 - - - 1016.7 - - - - - - - - -
24/07:00am 14.0 - - - 1016.9 - - - - - - - - -
24/06:30am 12.9 - - - 1016.9 - - - - - - - - -
24/06:00am 12.7 - - - 1016.9 - - - - - - - - -
24/05:30am 12.6 - - - 1016.8 - - - - - - - - -
24/05:00am 12.6 - - - 1016.7 - - - - - - - - -
24/04:30am 12.6 - - - 1016.7 - - - - - - - - -
24/04:00am 12.7 - - - 1016.6 - - - - - - - - -
24/03:30am 12.7 - - - 1016.7 - - - - - - - - -
24/03:00am 13.2 - - - 1016.5 - - - - - - - - -
24/02:30am 13.5 - - - 1016.8 - - - - - - - - -
24/02:00am 13.7 - - - 1016.7 - - - - - - - - -
24/01:30am 13.8 - - - 1016.9 - - - - - - - - -
24/01:00am 14.0 - - - 1017.1 - - - - - - - - -
24/12:30am 13.8 - - - 1017.2 - - - - - - - - -
24/12:00am 14.3 - - - 1017.3 - - - - - - - - -
 
Date/Time
WST
Temp
°C
Wind Pressure Rain since
9am
mm
Weather Cloud Vis
km
Sea
Height
m
Swell
Dir  Spd
kts
Gust
kts
hPa Trend Height
m
Period
s
Dir
23/11:30pm 14.6 - - - 1017.6 - - - - - - - - -
23/11:00pm 14.6 - - - 1018.1 - - - - - - - - -
23/10:30pm 14.9 - - - 1018.4 - - - - - - - - -
23/10:00pm 15.0 - - - 1018.5 - - - - - - - - -
23/09:30pm 15.4 - - - 1018.6 - - - - - - - - -
23/09:00pm 15.6 - - - 1018.6 - - - - - - - - -
23/08:30pm 15.9 - - - 1018.4 - - - - - - - - -
23/08:00pm 16.1 - - - 1018.3 - - - - - - - - -
23/07:30pm 16.1 - - - 1018.1 - - - - - - - - -
23/07:00pm 16.2 - - - 1018.0 - - - - - - - - -
23/06:30pm 16.3 - - - 1018.1 - - - - - - - - -
23/06:00pm 16.8 - - - 1017.9 - - - - - - - - -
23/05:30pm 17.6 - - - 1017.8 - - - - - - - - -
23/05:00pm 17.9 - - - 1017.7 - - - - - - - - -
23/04:30pm 18.2 - - - 1017.9 - - - - - - - - -
23/04:00pm 18.1 - - - 1018.0 - - - - - - - - -
23/03:30pm 18.1 - - - 1018.1 - - - - - - - - -
23/03:00pm 17.9 - - - 1018.4 - - - - - - - - -
23/02:30pm 18.2 - - - 1018.7 - - - - - - - - -
23/02:00pm 17.6 - - - 1019.0 - - - - - - - - -
23/01:30pm 17.4 - - - 1019.2 - - - - - - - - -
23/01:00pm 18.3 - - - 1019.3 - - - - - - - - -
23/12:30pm 17.4 - - - 1019.7 - - - - - - - - -
23/12:00pm 17.0 - - - 1020.0 - - - - - - - - -
23/11:30am 17.1 - - - 1020.3 - - - - - - - - -
23/11:00am 17.3 - - - 1020.6 - - - - - - - - -
23/10:30am 17.0 - - - 1020.9 - - - - - - - - -
23/10:00am 17.1 - - - 1021.1 - - - - - - - - -
23/09:30am 17.2 - - - 1021.4 - - - - - - - - -
23/09:00am 16.9 - - - 1021.6 - - - - - - - - -
23/08:30am 16.5 - - - 1021.8 - - - - - - - - -
23/08:00am 16.3 - - - 1021.9 - - - - - - - - -
23/07:30am 15.7 - - - 1022.1 - - - - - - - - -
23/07:00am 15.6 - - - 1022.1 - - - - - - - - -
23/06:30am 15.5 - - - 1021.9 - - - - - - - - -
23/06:00am 15.3 - - - 1021.6 - - - - - - - - -
23/05:30am 15.2 - - - 1021.4 - - - - - - - - -
23/05:00am 15.1 - - - 1021.3 - - - - - - - - -
23/04:30am 15.2 - - - 1021.0 - - - - - - - - -
23/04:00am 15.0 - - - 1020.8 - - - - - - - - -
23/03:30am 15.3 - - - 1020.6 - - - - - - - - -
23/03:00am 15.2 - - - 1020.7 - - - - - - - - -
23/02:30am 15.1 - - - 1020.6 - - - - - - - - -
23/02:00am 15.3 - - - 1020.7 - - - - - - - - -
23/01:30am 15.0 - - - 1020.8 - - - - - - - - -
23/01:00am 15.1 - - - 1021.0 - - - - - - - - -
23/12:30am 15.3 - - - 1021.1 - - - - - - - - -
23/12:00am 15.3 - - - 1021.2 - - - - - - - - -
 
Date/Time
WST
Temp
°C
Wind Pressure Rain since
9am
mm
Weather Cloud Vis
km
Sea
Height
m
Swell
Dir  Spd
kts
Gust
kts
hPa Trend Height
m
Period
s
Dir
22/11:30pm 15.2 - - - 1021.6 - - - - - - - - -
22/11:00pm 15.3 - - - 1021.6 - - - - - - - - -
22/10:30pm 15.5 - - - 1021.7 - - - - - - - - -
22/10:00pm 15.6 - - - 1021.8 - - - - - - - - -
22/09:30pm 15.5 - - - 1022.0 - - - - - - - - -
22/09:00pm 15.6 - - - 1022.1 - - - - - - - - -
22/08:30pm 15.6 - - - 1022.0 - - - - - - - - -
22/08:00pm 15.6 - - - 1021.9 - - - - - - - - -
22/07:30pm 15.8 - - - 1021.7 - - - - - - - - -
22/07:00pm 15.8 - - - 1021.8 - - - - - - - - -
22/06:30pm 16.0 - - - 1021.8 - - - - - - - - -
22/06:00pm 16.3 - - - 1021.6 - - - - - - - - -
22/05:30pm 16.3 - - - 1021.3 - - - - - - - - -
22/05:00pm 16.9 - - - 1021.0 - - - - - - - - -
22/04:30pm 17.4 - - - 1021.0 - - - - - - - - -
22/04:00pm 16.9 - - - 1021.0 - - - - - - - - -
22/03:30pm 17.2 - - - 1021.1 - - - - - - - - -
22/03:00pm 17.6 - - - 1021.1 - - - - - - - - -
22/02:30pm 17.2 - - - 1021.1 - - - - - - - - -
22/02:00pm 17.0 - - - 1021.1 - - - - - - - - -
22/01:30pm 17.2 - - - 1021.2 - - - - - - - - -
22/01:00pm 17.1 - - - 1021.3 - - - - - - - - -
22/12:30pm 17.1 - - - 1021.4 - - - - - - - - -
22/12:00pm 16.9 - - - 1021.7 - - - - - - - - -
22/11:30am 17.3 - - - 1021.9 - - - - - - - - -
22/11:00am 17.4 - - - 1022.2 - - - - - - - - -
22/10:30am 16.9 - - - 1022.4 - - - - - - - - -
22/10:00am 17.4 - - - 1022.5 - - - - - - - - -
22/09:30am 17.2 - - - 1022.6 - - - - - - - - -
22/09:00am 17.0 - - - 1022.6 - - - - - - - - -
22/08:30am 16.7 - - - 1022.4 - - - - - - - - -
22/08:00am 16.4 - - - 1022.3 - - - - - - - - -
22/07:30am 16.4 - - - 1022.3 - - - - - - - - -
22/07:00am 16.1 - - - 1022.1 - - - - - - - - -
22/06:30am 16.0 - - - 1021.9 - - - - - - - - -
22/06:00am 16.3 - - - 1021.8 - - - - - - - - -
22/05:30am 15.4 - - - 1021.9 - - - - - - - - -
22/05:00am 15.4 - - - 1021.7 - - - - - - - - -
22/04:30am 15.3 - - - 1021.5 - - - - - - - - -
22/04:00am 15.2 - - - 1021.2 - - - - - - - - -
22/03:30am 15.3 - - - 1020.8 - - - - - - - - -
22/03:00am 15.3 - - - 1020.7 - - - - - - - - -
22/02:30am 15.4 - - - 1020.7 - - - - - - - - -

Other Formats:

Comma delimited format used in spreadsheet applications
http://www.bom.gov.au/fwo/IDW60701/IDW60701.95648.axf

JavaScript Object Notation format (JSON) in row-major order
http://www.bom.gov.au/fwo/IDW60701/IDW60701.95648.json